Location: Middle Street
(51.7167°N, 0.0333°E)
Time: 01:41:07
(UTC+00:00)

Cosmos 1892 Rocket - Pass Details

Date: 20 January 2021
Orbit: 606 x 633 km, 82.5° (Epoch: 24 February)

Event Time Altitude Azimuth Distance (km) Brightness Sun altitude
Rises 18:31:33 0° 198° (SSW) 2,864 7.3 -18.7°
Reaches altitude 10° 18:33:47 10° 202° (SSW) 1,961 6.5 -19.0°
Maximum altitude 18:38:04 61° 283° (WNW) 694 4.0 -19.7°
Drops below altitude 10° 18:42:24 10° 5° (N) 1,971 6.0 -20.3°
Enters shadow 18:43:34 - 7° (N) 2,443 6.5 -20.5°
